Regional Weather Roundup
Issued by NWS

Home | Current Version | Previous Version | Graphics & Text | Print | Product List | Glossary On
Versions: 1 2 3 4 5 6 7 8 9 10 11 12 13 14 15 16 17 18 19 20 21 22 23 24 25 26 27 28 29 30 31 32 33 34 35 36 37 38 39 40 41 42 43 44 45 46 47 48 49 50
000
ASUS45 KCYS 231810
RWRWY

WYOMING REGIONAL WEATHER ROUNDUP
NATIONAL WEATHER SERVICE CHEYENNE WY
1200 PM MDT MON APR 23 2018

NOTE:  "FAIR" INDICATES FEW OR NO CLOUDS BELOW 12,000 FEET
WITH NO SIGNIFICANT WEATHER AND/OR OBSTRUCTIONS TO VISIBILITY.

WYZ001-231900-
YELLOWSTONE NATIONAL PARK

CITY           SKY/WX    TMP DP  RH WIND       PRES   REMARKS
LK YELLOWSTONE   N/A     31  28  89 VRB5      30.19R WCI  26
6HR MIN TEMP:  31; 6HR MAX TEMP:  34; 6HR PCP:  0.18;

W YELLOWSTONE  NOT AVBL

$$
WYZ002>013-054>058-071-098>099-231900-
NORTHERN WYOMING

CITY           SKY/WX    TMP DP  RH WIND       PRES   REMARKS
JACKSON        CLOUDY    46  29  51 SW17      30.15R
CODY           LGT SNOW  34  31  88 NW18      30.25R FOG     WCI  23
GREYBULL       LGT RAIN  39  38  96 W13       30.16R WCI  31
6HR MIN TEMP:  39; 6HR MAX TEMP:  48; 6HR PCP:  0.10;

WORLAND        LGT RAIN  35  35 100 W9        30.20R FOG     WCI  28
6HR MIN TEMP:  35; 6HR MAX TEMP:  46; 6HR PCP:  0.09;

SHERIDAN       RAIN      37  35  92 NW22      30.21R WCI  26
6HR MIN TEMP:  37; 6HR MAX TEMP:  47; 6HR PCP:  0.03;

BUFFALO        LGT SNOW  35  33  92 N24G36    30.15R FOG     WCI  23
6HR MIN TEMP:  37; 6HR MAX TEMP:  47; 6HR PCP: TRACE;

GILLETTE       FAIR      57  42  57 N16       30.04F
6HR MIN TEMP:  38; 6HR MAX TEMP:  58;

HULETT         MOCLDY    55  39  54 E13G20    30.07S
NEWCASTLE      FAIR      63  32  31 SE23G30   30.02F

$$
WYZ014>020-022>026-101>103-231900-
CENTRAL WYOMING

CITY           SKY/WX    TMP DP  RH WIND       PRES   REMARKS
BIG PINEY      FAIR      50  30  46 SW9       30.14S
6HR MIN TEMP:  36; 6HR MAX TEMP:  50; 6HR PCP:  0.04;

PINEDALE       MOCLDY    46  27  46 NW13G18   30.16S
DUBOIS         MOCLDY    45  32  61 NW13G18   30.10S
LANDER         CLOUDY    42  36  79 NE10      30.13R
6HR MIN TEMP:  41; 6HR MAX TEMP:  48; 6HR PCP:  0.01;

RIVERTON       CLOUDY    40  35  83 N15       30.14R WCI  32
6HR MIN TEMP:  39; 6HR MAX TEMP:  45; 6HR PCP:  0.01;

CASPER         PTSUNNY   54  36  50 N22       30.08R
6HR MIN TEMP:  32; 6HR MAX TEMP:  55;

DOUGLAS        PTSUNNY   59  42  53 E14       30.01F
6HR MIN TEMP:  39; 6HR MAX TEMP:  59;


$$
WYZ021-027>030-104>119-231900-
SOUTHERN WYOMING

CITY           SKY/WX    TMP DP  RH WIND       PRES   REMARKS
EVANSTON       FAIR      53  29  39 W22G30    30.18S
6HR MIN TEMP:  36; 6HR MAX TEMP:  53;

KEMMERER       FAIR      50  30  46 W17G26    30.17F
FORT BRIDGER   MOCLDY    55  30  39 W18G26    30.20S
ROCK SPRINGS   FAIR      54  32  43 W20G26    30.14F
6HR MIN TEMP:  41; 6HR MAX TEMP:  54; 6HR PCP: TRACE;

DIXON          FAIR      58  32  37 NW12      30.16S
RAWLINS        FAIR      54  33  45 W22G33    30.13R
                                      6HR PCP: TRACE;

SARATOGA       FAIR      59  32  36 W21G32    30.13R
LARAMIE        FAIR      63  28  26 SW7G28    30.07F
6HR MIN TEMP:  34; 6HR MAX TEMP:  65;

CHEYENNE       FAIR      62  35  36 S17G24    30.06F
6HR MIN TEMP:  34; 6HR MAX TEMP:  64;

TORRINGTON     FAIR      65  43  44 SE20G26   30.01F
6HR MIN TEMP:  35; 6HR MAX TEMP:  65;

PINE BLUFFS    FAIR      63  32  31 SE10G17   30.08S

$$



USA.gov is the U.S. government's official web portal to all federal, state and local government web resources and services.